[[{"header":{"parameterUnit":"m.s-1","parameterCategory":1,"la1":30.2991,"la2":30.254,"lo1":-89.0895,"lo2":-89.0444,"dy":0.0017,"dx":0.0017,"nx":28,"ny":28,"refTime":"2025-11-18T09:00:00:Z","depth":0,"parameterNumber":2,"parameterNumberName":"U-component_of_WINDS"},"data":[0,0,0,0,0,0,0,0,0,0,0,0,0,0,0,0,0,0,0,0,0,0,0,0,0,0,0,0,0,0,0,0,0,0,0,0,0,0,0,0,0,0,0,0,0,0,0,0,0,0,0,0,0,0,0,0,0,0,-0.1712,-0.1712,0,-0.1691,-0.1691,-0.1691,-0.1657,-0.1656,-0.1655,-0.1655,-0.1634,-0.1634,-0.1634,0,0,0,0,0,0,0,0,0,0,0,0,0,-0.172,-0.172,-0.1712,-0.1712,-0.1711,-0.1691,-0.1691,-0.1691,-0.1657,-0.1656,-0.1655,-0.1654,-0.1634,-0.1634,-0.1634,0,0,0,0,0,0,0,0,0,0,0,0,0,-0.171,-0.172,-0.1712,-0.1692,-0.169,-0.1691,-0.1691,-0.1691,-0.1657,-0.1656,-0.1655,-0.1654,-0.1634,-0.1634,-0.1634,-0.1653,0,0,-0.1634,-0.1634,0,0,0,0,0,0,0,0,-0.171,-0.1709,-0.1695,-0.1693,-0.1691,-0.1676,-0.1686,-0.1678,-0.1657,-0.1669,-0.1655,-0.1654,-0.1648,-0.1647,-0.1645,-0.1652,-0.1651,-0.1634,-0.1634,-0.1634,-0.1634,0,0,0,0,0,0,0,-0.1711,-0.171,-0.1704,-0.1695,-0.1692,-0.1683,-0.1681,-0.1685,-0.1664,-0.1668,-0.1666,-0.1664,-0.1647,-0.1645,-0.1645,-0.1651,-0.1634,-0.1634,-0.1634,-0.1634,-0.1671,-0.1672,0,0,0,0,0,0,-0.1715,-0.1711,-0.1704,-0.1703,-0.1699,-0.1684,-0.1681,-0.1681,-0.1664,-0.1661,-0.1665,-0.1662,-0.1646,-0.1645,-0.1644,-0.1664,-0.1634,-0.1634,-0.1634,-0.167,-0.1671,-0.1672,0,0,0,0,0,0,-0.1715,-0.1715,-0.1705,-0.1706,-0.1704,-0.1685,-0.1685,-0.1682,-0.168,-0.1662,-0.1658,-0.1667,-0.1645,-0.1644,-0.1651,-0.1663,-0.1634,-0.1634,-0.1669,-0.167,-0.1672,-0.1707,0,0,0,0,0,0,-0.1716,-0.1715,-0.1723,-0.1707,-0.1705,-0.1713,-0.1686,-0.1682,-0.168,-0.1677,-0.1663,-0.1659,-0.1644,-0.1651,-0.1651,-0.1663,-0.1634,-0.1668,-0.167,-0.1671,-0.1704,-0.1709,-0.1713,0,0,0,0,0,-0.1716,-0.1733,-0.1723,-0.1722,-0.1714,-0.1714,-0.1713,-0.1695,-0.1681,-0.1688,-0.1676,-0.166,-0.1662,-0.1652,-0.1651,-0.1664,-0.1667,-0.1669,-0.1671,-0.1702,-0.1708,-0.1713,0,0,0,0,0,0,-0.1751,-0.1731,-0.1719,-0.1732,-0.1725,-0.1708,-0.1717,-0.1702,-0.1698,-0.1695,-0.1673,-0.167,-0.168,-0.1672,-0.1662,-0.1681,-0.1662,-0.1664,-0.1686,-0.1691,-0.1695,-0.1697,-0.1634,0,0,0,0,0,-0.1761,-0.1763,-0.1745,-0.1758,-0.1755,-0.1737,-0.1736,-0.1723,-0.1714,-0.1711,-0.17,-0.1692,-0.1691,-0.169,-0.1688,-0.1703,-0.1699,-0.1711,-0.1716,-0.1719,-0.1722,-0.1728,-0.1733,-0.1679,-0.1679,-0.1679,0,0,-0.178,-0.1769,-0.1772,-0.1765,-0.1758,-0.176,-0.1734,-0.1738,-0.1739,-0.1712,-0.1717,-0.1709,-0.1698,-0.1709,-0.1713,-0.1703,-0.1735,-0.1722,-0.1725,-0.1725,-0.173,-0.1736,-0.174,-0.1681,-0.168,-0.168,0,0,-0.1816,-0.1809,-0.1818,-0.1811,-0.1801,-0.1788,-0.179,-0.1775,-0.1768,-0.1774,-0.1753,-0.1754,-0.1753,-0.1746,-0.1742,-0.1774,-0.1759,-0.1774,-0.1798,-0.1804,-0.1808,-0.1812,-0.1823,-0.1827,-0.1777,-0.1777,-0.1777,0,-0.1842,-0.1845,-0.1825,-0.183,-0.1827,-0.1802,-0.1811,-0.1805,-0.1794,-0.1793,-0.1781,-0.1778,-0.177,-0.1778,-0.1786,-0.1784,-0.1785,-0.1776,-0.1809,-0.1813,-0.1816,-0.1826,-0.183,-0.1779,-0.1778,-0.1778,-0.1778,0,-0.1876,-0.1878,-0.1887,-0.1877,-0.1875,-0.1882,-0.1863,-0.1863,-0.185,-0.1839,-0.1844,-0.1832,-0.1827,-0.1828,-0.1815,-0.1834,-0.1828,-0.1813,-0.1794,-0.1823,-0.1832,-0.1836,-0.1781,-0.1781,-0.178,-0.178,0,0,-0.1935,-0.1913,-0.1917,-0.1911,-0.1897,-0.1898,-0.1904,-0.1898,-0.1899,-0.1892,-0.1895,-0.1894,-0.188,-0.1876,-0.1862,-0.1867,-0.1893,-0.1852,-0.1851,-0.1859,-0.1912,-0.1923,-0.1928,-0.1882,-0.1883,-0.1883,-0.1912,0,-0.1968,-0.1976,-0.1958,-0.1971,-0.1972,-0.1947,-0.1952,-0.1943,-0.1932,-0.1931,-0.1919,-0.1918,-0.19,-0.1897,-0.1902,-0.1889,-0.1903,-0.1886,-0.1884,-0.1885,-0.1888,-0.1933,-0.1944,-0.1973,-0.1916,-0.1917,-0.1917,0,-0.2008,-0.2003,-0.2016,-0.1999,-0.1999,-0.2004,-0.1997,-0.1996,-0.1986,-0.1977,-0.1972,-0.1955,-0.1959,-0.1939,-0.1943,-0.1932,-0.193,-0.1924,-0.1924,-0.1924,-0.1903,-0.1933,-0.1981,-0.1986,-0.1922,-0.1922,-0.1922,0,-0.2049,-0.2045,-0.2052,-0.2048,-0.203,-0.2033,-0.2026,-0.2014,-0.2012,-0.2005,-0.2003,-0.1998,-0.1995,-0.199,-0.1972,-0.196,-0.1978,-0.1957,-0.197,-0.1971,-0.1975,-0.1975,-0.2024,-0.1974,-0.1974,-0.1974,-0.1974,0,-0.2088,-0.2097,-0.207,-0.2074,-0.2083,-0.2061,-0.207,-0.206,-0.205,-0.2051,-0.2029,-0.2031,-0.2007,-0.2006,-0.1991,-0.1996,-0.1995,-0.1988,-0.1984,-0.199,-0.1991,-0.1988,-0.1986,-0.1975,-0.1975,-0.1975,-0.1975,0,-0.2136,-0.2118,-0.2124,-0.2106,-0.2101,-0.2108,-0.2092,-0.2095,-0.2082,-0.2084,-0.2083,-0.2063,-0.206,-0.2041,-0.2035,-0.2025,-0.2035,-0.2027,-0.2039,-0.2036,-0.205,-0.2049,-0.2099,-0.2104,-0.2051,-0.2052,-0.2052,0,-0.2162,-0.2168,-0.215,-0.2149,-0.2142,-0.2142,-0.2139,-0.2118,-0.2116,-0.2103,-0.2107,-0.2103,-0.2098,-0.2094,-0.2079,-0.2073,-0.2065,-0.2082,-0.2064,-0.2069,-0.2064,-0.2064,-0.2064,-0.2087,-0.2087,-0.2088,-0.2088,0,-0.2209,-0.22,-0.2197,-0.2191,-0.2188,-0.2182,-0.2175,-0.2175,-0.2152,-0.215,-0.2147,-0.2143,-0.2136,-0.2131,-0.2122,-0.2114,-0.2097,-0.2094,-0.2097,-0.2103,-0.2109,-0.2106,-0.2049,-0.2093,-0.2093,-0.2093,-0.2092,-0.2092,-0.2247,-0.225,-0.2238,-0.2235,-0.2227,-0.2221,-0.2222,-0.2209,-0.2206,-0.2198,-0.2186,-0.2184,-0.2172,-0.2158,-0.2151,-0.2149,-0.2139,-0.2143,-0.2144,-0.2146,-0.2148,-0.211,-0.2147,-0.2147,-0.2147,-0.2147,-0.2147,0,-0.2293,-0.2284,-0.2281,-0.2271,-0.2269,-0.2253,-0.2243,-0.2242,-0.2241,-0.2231,-0.2227,-0.2222,-0.2217,-0.2201,-0.2194,-0.2196,-0.2188,-0.2194,-0.2194,-0.2192,-0.2158,-0.2156,-0.2201,-0.2201,-0.2201,-0.2201,-0.2201,-0.2201,-0.2317,-0.2322,-0.2311,-0.2312,-0.2302,-0.23,-0.2296,-0.229,-0.2281,-0.2278,-0.2274,-0.2263,-0.225,-0.2242,-0.2236,-0.2231,-0.223,-0.2239,-0.2232,-0.22,-0.2195,-0.219,-0.2188,-0.2239,-0.2239,-0.2267,-0.2267,-0.2267]},{"header":{"parameterUnit":"m.s-1","parameterCategory":1,"la1":30.2991,"la2":30.254,"lo1":-89.0895,"lo2":-89.0444,"dy":0.0017,"dx":0.0017,"nx":28,"ny":28,"refTime":"2025-11-18T09:00:00:Z","depth":0,"parameterNumber":3,"parameterNumberName":"V-component_of_WINDS"},"data":[0,0,0,0,0,0,0,0,0,0,0,0,0,0,0,0,0,0,0,0,0,0,0,0,0,0,0,0,0,0,0,0,0,0,0,0,0,0,0,0,0,0,0,0,0,0,0,0,0,0,0,0,0,0,0,0,0,0,-0.0803,-0.0804,0,-0.0877,-0.0877,-0.0878,-0.0919,-0.0919,-0.0919,-0.0919,-0.0996,-0.0997,-0.0999,0,0,0,0,0,0,0,0,0,0,0,0,0,-0.0701,-0.0703,-0.0803,-0.0804,-0.0805,-0.0876,-0.0877,-0.0878,-0.0919,-0.0919,-0.0919,-0.0919,-0.0995,-0.0997,-0.1,0,0,0,0,0,0,0,0,0,0,0,0,0,-0.0757,-0.0703,-0.0803,-0.0834,-0.0837,-0.0876,-0.0877,-0.0879,-0.0919,-0.0919,-0.0919,-0.0919,-0.0994,-0.0997,-0.1,-0.1015,0,0,-0.1009,-0.101,0,0,0,0,0,0,0,0,-0.0754,-0.0761,-0.0828,-0.0832,-0.0835,-0.0889,-0.087,-0.0924,-0.0919,-0.0888,-0.0919,-0.0919,-0.096,-0.0966,-0.0979,-0.1018,-0.1022,-0.1009,-0.1011,-0.1012,-0.1013,0,0,0,0,0,0,0,-0.075,-0.0758,-0.0832,-0.0829,-0.0834,-0.0845,-0.0853,-0.088,-0.0922,-0.089,-0.0893,-0.0902,-0.0962,-0.0976,-0.0981,-0.1023,-0.1009,-0.1012,-0.1013,-0.1015,-0.1082,-0.1082,0,0,0,0,0,0,-0.0741,-0.0754,-0.083,-0.0834,-0.0794,-0.0847,-0.0856,-0.0871,-0.0922,-0.093,-0.0901,-0.0903,-0.0971,-0.0978,-0.0984,-0.1007,-0.1012,-0.1015,-0.1016,-0.1082,-0.1082,-0.1082,0,0,0,0,0,0,-0.0739,-0.0747,-0.0827,-0.0795,-0.0806,-0.0848,-0.0866,-0.0873,-0.0887,-0.093,-0.0938,-0.0908,-0.0972,-0.098,-0.1008,-0.101,-0.1016,-0.1019,-0.1082,-0.1082,-0.1082,-0.1052,0,0,0,0,0,0,-0.0735,-0.0746,-0.0751,-0.0795,-0.0808,-0.0848,-0.0866,-0.0874,-0.0892,-0.0895,-0.0938,-0.0946,-0.0972,-0.1003,-0.101,-0.1014,-0.1021,-0.1081,-0.1082,-0.1082,-0.1053,-0.1051,-0.1049,0,0,0,0,0,-0.0732,-0.0739,-0.0751,-0.076,-0.0815,-0.0848,-0.0855,-0.0885,-0.0892,-0.0898,-0.0926,-0.0944,-0.1009,-0.1005,-0.1014,-0.1019,-0.1081,-0.1082,-0.1082,-0.1053,-0.1051,-0.1049,0,0,0,0,0,0,-0.0694,-0.0746,-0.0759,-0.0781,-0.081,-0.0855,-0.0863,-0.0881,-0.0909,-0.0911,-0.0947,-0.0957,-0.0981,-0.1003,-0.0998,-0.1038,-0.1047,-0.1049,-0.1023,-0.1021,-0.1019,-0.1014,-0.1023,0,0,0,0,0,-0.0689,-0.071,-0.0754,-0.077,-0.0783,-0.0821,-0.0836,-0.0857,-0.0888,-0.0901,-0.0931,-0.0961,-0.0989,-0.1006,-0.1033,-0.1056,-0.1068,-0.1064,-0.1062,-0.106,-0.1062,-0.1078,-0.1078,-0.1082,-0.1082,-0.1082,0,0,-0.0677,-0.0708,-0.0719,-0.0763,-0.0788,-0.0811,-0.0831,-0.0853,-0.0872,-0.0904,-0.0933,-0.0956,-0.0993,-0.1019,-0.1031,-0.1037,-0.1064,-0.1061,-0.1059,-0.1061,-0.1078,-0.1078,-0.1078,-0.1082,-0.1082,-0.1082,0,0,-0.0669,-0.0693,-0.071,-0.0734,-0.0772,-0.0797,-0.0801,-0.0844,-0.0861,-0.089,-0.0916,-0.0938,-0.0984,-0.101,-0.1029,-0.1033,-0.1052,-0.1041,-0.1032,-0.1047,-0.1047,-0.1047,-0.1051,-0.1051,-0.1042,-0.1042,-0.1042,0,-0.065,-0.0685,-0.0716,-0.0738,-0.0758,-0.0789,-0.0808,-0.083,-0.0875,-0.0888,-0.0894,-0.0954,-0.098,-0.1014,-0.1016,-0.1029,-0.1037,-0.1036,-0.1044,-0.1045,-0.1045,-0.1049,-0.105,-0.104,-0.1041,-0.1041,-0.1041,0,-0.0661,-0.0685,-0.0694,-0.0737,-0.0757,-0.0777,-0.0814,-0.0831,-0.085,-0.0876,-0.0906,-0.094,-0.0976,-0.0985,-0.1004,-0.1023,-0.1025,-0.1037,-0.1048,-0.1043,-0.1047,-0.1049,-0.1038,-0.1039,-0.1039,-0.104,0,0,-0.063,-0.0691,-0.0694,-0.0715,-0.076,-0.078,-0.0802,-0.0838,-0.0853,-0.0883,-0.0904,-0.0944,-0.0956,-0.0978,-0.1,-0.1014,-0.1018,-0.1024,-0.1026,-0.1024,-0.1043,-0.1035,-0.1036,-0.103,-0.1031,-0.1031,-0.1041,0,-0.0629,-0.067,-0.07,-0.0731,-0.0755,-0.0786,-0.0806,-0.0837,-0.0862,-0.0887,-0.0914,-0.0943,-0.0955,-0.0969,-0.0984,-0.1014,-0.1022,-0.1014,-0.1052,-0.1053,-0.1043,-0.1038,-0.1028,-0.1035,-0.1042,-0.1043,-0.1043,0,-0.0633,-0.0663,-0.0695,-0.074,-0.0751,-0.0769,-0.0805,-0.0828,-0.0864,-0.0882,-0.0907,-0.0931,-0.0958,-0.0966,-0.1005,-0.0999,-0.1017,-0.1034,-0.1035,-0.1041,-0.1048,-0.1044,-0.1038,-0.104,-0.1045,-0.1045,-0.1045,0,-0.0609,-0.0658,-0.0684,-0.0701,-0.0753,-0.0765,-0.0788,-0.0824,-0.0844,-0.0876,-0.089,-0.0925,-0.0944,-0.0971,-0.1004,-0.1006,-0.1042,-0.1051,-0.1058,-0.1058,-0.1065,-0.1064,-0.1063,-0.1074,-0.1074,-0.1074,-0.1074,0,-0.0606,-0.0625,-0.0675,-0.0691,-0.0715,-0.075,-0.0773,-0.0798,-0.0831,-0.0854,-0.0883,-0.0905,-0.0947,-0.0974,-0.1,-0.103,-0.1038,-0.1054,-0.1061,-0.1053,-0.1051,-0.1065,-0.1066,-0.1074,-0.1074,-0.1074,-0.1074,0,-0.0583,-0.0617,-0.0649,-0.0696,-0.0709,-0.0724,-0.0765,-0.0784,-0.081,-0.084,-0.0849,-0.0891,-0.0925,-0.0961,-0.1007,-0.1025,-0.1054,-0.1063,-0.1042,-0.1046,-0.1052,-0.1051,-0.1061,-0.1065,-0.1072,-0.1072,-0.1071,0,-0.0579,-0.0595,-0.0645,-0.0662,-0.0684,-0.0712,-0.0733,-0.0769,-0.079,-0.0834,-0.0848,-0.0884,-0.0914,-0.0967,-0.1003,-0.1039,-0.105,-0.1051,-0.1056,-0.1047,-0.1052,-0.1051,-0.1054,-0.105,-0.1049,-0.1049,-0.1049,0,-0.057,-0.0586,-0.0615,-0.065,-0.0675,-0.0704,-0.0735,-0.0748,-0.0791,-0.0814,-0.0849,-0.0872,-0.092,-0.0956,-0.0997,-0.1022,-0.1043,-0.1047,-0.1051,-0.1043,-0.103,-0.1039,-0.1039,-0.1047,-0.1047,-0.1047,-0.1047,-0.1048,-0.0558,-0.0574,-0.0612,-0.0644,-0.0671,-0.07,-0.072,-0.075,-0.078,-0.0821,-0.0841,-0.0877,-0.0915,-0.0972,-0.0997,-0.1026,-0.1033,-0.1038,-0.1039,-0.104,-0.1039,-0.1025,-0.1034,-0.1034,-0.1034,-0.1034,-0.1034,0,-0.0551,-0.0577,-0.0606,-0.0649,-0.0675,-0.0692,-0.0728,-0.0749,-0.078,-0.0814,-0.0844,-0.0885,-0.0921,-0.0961,-0.0999,-0.1016,-0.1027,-0.1025,-0.1024,-0.103,-0.103,-0.1024,-0.1015,-0.1015,-0.1015,-0.1015,-0.1015,-0.1015,-0.0551,-0.058,-0.0602,-0.0646,-0.0673,-0.0707,-0.0727,-0.0754,-0.0782,-0.0827,-0.0856,-0.0882,-0.0919,-0.0961,-0.0995,-0.1006,-0.102,-0.1015,-0.1029,-0.1028,-0.103,-0.1031,-0.1026,-0.1018,-0.1018,-0.1027,-0.1027,-0.1027]}]]